This is the latest recevied weather packets stored in our database for station/object AF5AA. If no packets are shown the sender has not sent any weather packets the latest 10 day(s).
| Time | Temp. | Humidity | Pressure | Rain* | Wind** | Luminosity | Snow |
|---|---|---|---|---|---|---|---|
| 1777438245 | 24.44° C | 90% | 1009.9 hPa | 0 mm | - | 0 W/m² | - |
| 1777437940 | 24.44° C | 89% | 1010.3 hPa | 0 mm | - | 0 W/m² | - |
| 1777437637 | 25° C | 89% | 1010.4 hPa | 0 mm | - | 0 W/m² | - |
| 1777437334 | 25° C | 88% | 1010.4 hPa | 0 mm | - | 0 W/m² | - |
| 1777437030 | 25° C | 88% | 1010.8 hPa | 0 mm | - | 0 W/m² | - |
| 1777436727 | 25° C | 87% | 1010.6 hPa | 0 mm | - | 0 W/m² | - |
| 1777436423 | 25.56° C | 87% | 1010.5 hPa | 0 mm | - | 0 W/m² | - |
| 1777436120 | 25.56° C | 86% | 1010.6 hPa | 0 mm | - | 0 W/m² | - |
| 1777435817 | 25.56° C | 85% | 1010.7 hPa | 0 mm | - | 0 W/m² | - |
| 1777435512 | 26.11° C | 85% | 1010.4 hPa | 0 mm | - | 0 W/m² | - |
| 1777435208 | 26.11° C | 84% | 1010.4 hPa | 0 mm | - | 0 W/m² | - |
| 1777434907 | 26.67° C | 82% | 1010.5 hPa | 0 mm | - | 0 W/m² | - |
| 1777434603 | 26.67° C | 82% | 1010.2 hPa | 0 mm | - | 0 W/m² | - |
| 1777434298 | 26.67° C | 82% | 1010 hPa | 0 mm | - | 0 W/m² | - |
| 1777433996 | 26.67° C | 82% | 1009.9 hPa | 0 mm | - | 0 W/m² | - |
| 1777433693 | 26.67° C | 82% | 1009.4 hPa | 0 mm | - | 0 W/m² | - |
| 1777433388 | 26.67° C | 82% | 1009.3 hPa | 0 mm | - | 0 W/m² | - |
| 1777433084 | 26.67° C | 82% | 1008.9 hPa | 0 mm | - | 0 W/m² | - |
| 1777432780 | 26.67° C | 81% | 1009 hPa | 0 mm | - | 0 W/m² | - |
| 1777432476 | 27.22° C | 80% | 1008.5 hPa | 0 mm | - | 0 W/m² | - |
| 1777432172 | 26.67° C | 80% | 1008.6 hPa | 0 mm | - | 0 W/m² | - |
| 1777431871 | 27.22° C | 81% | 1008.3 hPa | 0 mm | - | 0 W/m² | - |
| 1777431568 | 27.22° C | 80% | 1008.2 hPa | 0 mm | - | 0 W/m² | - |
| 1777431264 | 26.67° C | 82% | 1008.6 hPa | 0 mm | - | 0 W/m² | - |
| 1777430960 | 26.11° C | 84% | 1008.6 hPa | 0 mm | - | 0 W/m² | - |
* Rain latest hour (hover to see other rain measurements)
** Current wind speed in m/s (hover to see current wind gust speed)